Princeton, MN

1:21 AM CST on February 23, 2017 (GMT -0600)
Princeton Municipal

Weather History for KPNM - March, 2013

Change the Weather History Date:

Sunday, March 17, 2013

  Actual Average Record
Temperature  
Mean Temperature 8 °F -  
Max Temperature 23 °F 36 °F 77 °F (2012)
Min Temperature -7 °F 18 °F -7 °F (2013)
Degree Days  
Heating Degree Days 57    
Moisture  
Dew Point 1 °F    
Average Humidity 62    
Maximum Humidity 84    
Minimum Humidity 46    
Precipitation  
Precipitation 0.00 in - - ()
Sea Level Pressure  
Sea Level Pressure 30.10 in    
Wind  
Wind Speed 6 mph (East)    
Max Wind Speed 14 mph    
Max Gust Speed 16 mph    
Visibility 10 miles    
Events      
Averages and records for this station are not official NWS values.
T = Trace of Precipitation, MM = Missing Value Source: NWS Daily Summary

Daily Weather History Graph

Daily Weather History Graph

Search for Another Location

Airport or City:

Trip Planner

Search our weather history database for the weather conditions in past years. The results will help you decide how hot, cold, wet, or windy it might be!

Date:

Astronomy

Mar. 17, 2013 Rise Set
Actual Time 7:22 AM CDT 7:23 PM CDT
Civil Twilight 6:53 AM CDT 7:52 PM CDT
Nautical Twilight 6:18 AM CDT 8:27 PM CDT
Astronomical Twilight 5:43 AM CDT 9:03 PM CDT
Moon 10:19 AM CDT (3/17) 12:47 AM CDT (3/17)
Length of Visible Light 12h 59m
Length of Day
12h 00m
Waxing Crescent, 31% of the Moon is Illuminated
Mar 17
Waxing Crescent
Mar 19
First Quarter
Mar 27
Full
Apr 2
Last Quarter
Apr 10
New

Hourly Weather History & Observations

Time (CDT) Temp. Windchill Dew Point Humidity Pressure Visibility Wind Dir Wind Speed Gust Speed Precip Events Conditions
12:11 AM 5.0 °F -6.9 °F -2.2 °F 72% 30.23 in 10.0 mi NNW 6.9 mph - N/A   Clear
12:31 AM 5.0 °F -4.1 °F -2.2 °F 72% 30.23 in 10.0 mi NNW 4.6 mph - N/A   Clear
12:51 AM 5.0 °F -5.6 °F -4.0 °F 66% 30.24 in 10.0 mi North 5.8 mph - N/A   Clear
1:11 AM 5.0 °F -5.6 °F -4.0 °F 66% 30.25 in 10.0 mi North 5.8 mph - N/A   Clear
1:31 AM 5.0 °F -4.1 °F -4.0 °F 66% 30.25 in 10.0 mi NNW 4.6 mph - N/A   Clear
1:51 AM 5.0 °F -5.6 °F -4.0 °F 66% 30.25 in 10.0 mi NNW 5.8 mph - N/A   Clear
2:11 AM 3.2 °F -6.2 °F -5.8 °F 66% 30.25 in 10.0 mi North 4.6 mph - N/A   Clear
2:31 AM 3.2 °F -6.2 °F -5.8 °F 66% 30.25 in 10.0 mi North 4.6 mph - N/A   Clear
2:51 AM 1.4 °F -6.2 °F -5.8 °F 72% 30.25 in 10.0 mi North 3.5 mph - N/A   Clear
3:11 AM 1.4 °F - -5.8 °F 72% 30.25 in 10.0 mi Calm Calm - N/A   Clear
3:32 AM -0.4 °F - -5.8 °F 78% 30.24 in 10.0 mi Calm Calm - N/A   Clear
3:51 AM -0.4 °F - -5.8 °F 78% 30.24 in 10.0 mi Calm Calm - N/A   Clear
4:11 AM -5.8 °F - -9.4 °F 84% 30.23 in 10.0 mi Calm Calm - N/A   Clear
4:32 AM -0.4 °F -8.3 °F -5.8 °F 78% 30.23 in 10.0 mi NNE 3.5 mph - N/A   Clear
4:51 AM -0.4 °F -10.4 °F -5.8 °F 78% 30.23 in 10.0 mi NNE 4.6 mph - N/A   Clear
5:11 AM -0.4 °F - -7.6 °F 72% 30.23 in 10.0 mi Calm Calm - N/A   Clear
5:32 AM -5.8 °F - -9.4 °F 84% 30.24 in 10.0 mi Calm Calm - N/A   Clear
5:51 AM -5.8 °F - -9.4 °F 84% 30.24 in 10.0 mi Calm Calm - N/A   Clear
6:11 AM -7.6 °F -16.5 °F -11.2 °F 84% 30.24 in 10.0 mi North 3.5 mph - N/A   Clear
6:51 AM -5.8 °F -14.5 °F -9.4 °F 84% 30.23 in 10.0 mi NNE 3.5 mph - N/A   Clear
7:11 AM -5.8 °F - -9.4 °F 84% 30.24 in 10.0 mi Calm Calm - N/A   Clear
7:31 AM -2.2 °F -10.4 °F -7.6 °F 78% 30.22 in 10.0 mi NE 3.5 mph - N/A   Clear
7:51 AM -0.4 °F -8.3 °F -5.8 °F 78% 30.22 in 10.0 mi ENE 3.5 mph - N/A   Clear
8:11 AM -0.4 °F -12.0 °F -5.8 °F 78% 30.19 in 10.0 mi ENE 5.8 mph - N/A   Clear
8:31 AM 1.4 °F -9.9 °F -5.8 °F 72% 30.20 in 10.0 mi ENE 5.8 mph - N/A   Clear
8:51 AM 3.2 °F -10.3 °F -5.8 °F 66% 30.20 in 10.0 mi ENE 8.1 mph - N/A   Clear
9:11 AM 3.2 °F -7.8 °F -5.8 °F 66% 30.20 in 10.0 mi East 5.8 mph - N/A   Clear
9:31 AM 6.8 °F -6.9 °F -4.0 °F 61% 30.20 in 10.0 mi East 9.2 mph - N/A   Clear
9:51 AM 8.6 °F -3.7 °F -4.0 °F 57% 30.20 in 10.0 mi East 8.1 mph - N/A   Clear
10:11 AM 8.6 °F -4.7 °F -2.2 °F 62% 30.19 in 10.0 mi ESE 9.2 mph - N/A   Mostly Cloudy
10:31 AM 10.4 °F -0.4 °F -2.2 °F 57% 30.18 in 10.0 mi East 6.9 mph - N/A   Overcast
11:11 AM 12.2 °F -0.2 °F -0.4 °F 57% 30.17 in 10.0 mi ESE 9.2 mph - N/A   Overcast
11:31 AM 14.0 °F -0.2 °F -0.4 °F 53% 30.16 in 10.0 mi ESE 12.7 mph - N/A   Overcast
11:51 AM 15.8 °F 1.4 °F -0.4 °F 49% 30.15 in 10.0 mi ESE 13.8 mph - N/A   Overcast
12:11 PM 15.8 °F 4.2 °F 1.4 °F 53% 30.15 in 10.0 mi ESE 9.2 mph - N/A   Overcast
12:31 PM 15.8 °F 3.4 °F 1.4 °F 53% 30.15 in 10.0 mi SE 10.4 mph - N/A   Mostly Cloudy
12:51 PM 17.6 °F 5.0 °F 1.4 °F 49% 30.14 in 10.0 mi ESE 11.5 mph - N/A   Mostly Cloudy
1:11 PM 17.6 °F 5.7 °F 1.4 °F 49% 30.12 in 10.0 mi ESE 10.4 mph - N/A   Mostly Cloudy
1:31 PM 19.4 °F 8.6 °F 3.2 °F 49% 30.12 in 10.0 mi East 9.2 mph - N/A   Mostly Cloudy
1:51 PM 19.4 °F 7.2 °F 3.2 °F 49% 30.10 in 10.0 mi ESE 11.5 mph 16.1 mph N/A   Scattered Clouds
2:11 PM 19.4 °F 7.2 °F 3.2 °F 49% 30.08 in 10.0 mi SE 11.5 mph - N/A   Scattered Clouds
2:31 PM 21.2 °F 10.1 °F 3.2 °F 46% 30.06 in 10.0 mi SE 10.4 mph - N/A   Scattered Clouds
2:51 PM 23.0 °F 13.1 °F 5.0 °F 46% 30.05 in 10.0 mi ESE 9.2 mph - N/A   Scattered Clouds
3:11 PM 21.2 °F 10.9 °F 5.0 °F 50% 30.03 in 10.0 mi East 9.2 mph - N/A   Mostly Cloudy
3:31 PM 23.0 °F 12.4 °F 6.8 °F 50% 30.02 in 10.0 mi East 10.4 mph - N/A   Scattered Clouds
3:51 PM 23.0 °F 12.4 °F 5.0 °F 46% 30.01 in 10.0 mi ESE 10.4 mph - N/A   Mostly Cloudy
4:11 PM 23.0 °F 13.1 °F 6.8 °F 50% 29.99 in 10.0 mi ESE 9.2 mph - N/A   Overcast
4:31 PM 23.0 °F 12.4 °F 6.8 °F 50% 29.99 in 10.0 mi ESE 10.4 mph - N/A   Mostly Cloudy
4:51 PM 23.0 °F 12.4 °F 6.8 °F 50% 29.99 in 10.0 mi ESE 10.4 mph 16.1 mph N/A   Scattered Clouds
5:11 PM 23.0 °F 11.7 °F 6.8 °F 50% 29.98 in 10.0 mi ESE 11.5 mph - N/A   Scattered Clouds
5:31 PM 23.0 °F 12.4 °F 6.8 °F 50% 29.98 in 10.0 mi ESE 10.4 mph - N/A   Mostly Cloudy
5:51 PM 23.0 °F 13.1 °F 6.8 °F 50% 29.97 in 10.0 mi ESE 9.2 mph - N/A   Overcast
6:11 PM 23.0 °F 12.4 °F 6.8 °F 50% 29.96 in 10.0 mi East 10.4 mph - N/A   Overcast
6:31 PM 23.0 °F 12.4 °F 6.8 °F 50% 29.94 in 10.0 mi ESE 10.4 mph 16.1 mph N/A   Overcast
6:51 PM 23.0 °F 12.4 °F 6.8 °F 50% 29.93 in 10.0 mi East 10.4 mph - N/A   Overcast
7:11 PM 23.0 °F 12.4 °F 8.6 °F 54% 29.93 in 10.0 mi ESE 10.4 mph 16.1 mph N/A   Overcast
7:31 PM 23.0 °F 11.7 °F 8.6 °F 54% 29.92 in 10.0 mi ESE 11.5 mph - N/A   Overcast
7:51 PM 23.0 °F 12.4 °F 8.6 °F 54% 29.92 in 10.0 mi East 10.4 mph 16.1 mph N/A   Overcast
8:11 PM 23.0 °F 14.7 °F 8.6 °F 54% 29.91 in 10.0 mi East 6.9 mph - N/A   Overcast
8:31 PM 21.2 °F 11.7 °F 8.6 °F 58% 29.91 in 10.0 mi ESE 8.1 mph - N/A   Overcast
9:12 PM 21.2 °F 10.1 °F 8.6 °F 58% 29.89 in 10.0 mi East 10.4 mph - N/A   Overcast
9:51 PM 23.0 °F 15.8 °F 10.4 °F 59% 29.89 in 10.0 mi ESE 5.8 mph - N/A   Overcast
10:11 PM 23.0 °F 15.8 °F 10.4 °F 59% 29.88 in 10.0 mi ESE 5.8 mph - N/A   Overcast
10:31 PM 23.0 °F 14.7 °F 10.4 °F 59% 29.87 in 10.0 mi ESE 6.9 mph - N/A   Overcast
10:52 PM 23.0 °F 15.8 °F 10.4 °F 59% 29.87 in 10.0 mi ESE 5.8 mph - N/A   Overcast
11:11 PM 23.0 °F 15.8 °F 10.4 °F 59% 29.86 in 10.0 mi ESE 5.8 mph - N/A   Overcast
11:31 PM 23.0 °F 15.8 °F 10.4 °F 59% 29.85 in 10.0 mi ESE 5.8 mph - N/A   Overcast
11:52 PM 23.0 °F 13.1 °F 10.4 °F 59% 29.83 in 10.0 mi East 9.2 mph - N/A   Overcast